Weather History for Corsicana, TX

Change the Weather History Date:

Thursday, July 25, 2013

  Actual Average (KACT) Record (KACT)
Temperature  
Mean Temperature 86 °F 86 °F  
Max Temperature 97 °F 97 °F 108 °F (1954)
Min Temperature 75 °F 75 °F 65 °F (1911)
Degree Days  
Heating Degree Days 0 0  
Month to date heating degree days 0  
Since 1 June heating degree days 0  
Since 1 July heating degree days 0  
Cooling Degree Days 20 21  
Month to date cooling degree days 500  
Year to date cooling degree days 1440  
Since 1 June cooling degree days 988  
Growing Degree Days 36 (Base 50)    
Moisture  
Dew Point 72 °F    
Average Humidity 64    
Maximum Humidity 88    
Minimum Humidity 44    
Precipitation  
Precipitation 0.00 in 0.06 in 2.86 in (1971)
Month to date precipitation 1.45  
Year to date precipitation 19.77  
Sea Level Pressure  
Sea Level Pressure 30.00 in    
Wind  
Wind Speed 5 mph (ESE)    
Max Wind Speed 15 mph    
Max Gust Speed 18 mph    
Visibility 10 miles    
Events Thunderstorm    
T = Trace of Precipitation, MM = Missing Value Source: NWS Daily Summary

Daily Weather History Graph

Daily Weather History Graph

Search for Another Location

Airport:

Trip Planner

Search our weather history database for the weather conditions in past years. The results will help you decide how hot, cold, wet, or windy it might be!

Date:

Astronomy

Jul. 25, 2013 Rise Set
Actual Time 6:36 AM CDT 8:27 PM CDT
Civil Twilight 6:09 AM CDT 8:54 PM CDT
Nautical Twilight 5:36 AM CDT 9:27 PM CDT
Astronomical Twilight 5:01 AM CDT 10:01 PM CDT
Moon 10:26 PM CDT (7/25) 9:51 AM CDT (7/25)
Length of Visible Light 14h 45m
Length of Day
13h 50m
Waning Gibbous, 88% of the Moon is Illuminated
Jul 25
Waning Gibbous
Jul 29
Last Quarter
Aug 6
New
Aug 14
First Quarter
Aug 20
Full

Hourly Weather History & Observations

Time (CDT) Temp. Heat Index Dew Point Humidity Pressure Visibility Wind Dir Wind Speed Gust Speed Precip Events Conditions
12:53 AM 79.0 °F - 73.0 °F 82% 29.97 in 10.0 mi ENE 3.5 mph - N/A   Clear
1:53 AM 78.1 °F - 73.0 °F 84% 29.97 in 10.0 mi ENE 4.6 mph - N/A   Clear
2:53 AM 77.0 °F - 73.0 °F 88% 29.96 in 10.0 mi NE 4.6 mph - N/A   Clear
3:53 AM 75.9 °F - 72.0 °F 87% 29.97 in 10.0 mi ENE 3.5 mph - N/A   Clear
4:53 AM 77.0 °F - 72.0 °F 84% 29.98 in 10.0 mi East 3.5 mph - N/A   Overcast
5:53 AM 75.9 °F - 72.0 °F 87% 29.99 in 10.0 mi East 3.5 mph - N/A   Clear
6:53 AM 75.9 °F - 72.0 °F 87% 30.01 in 8.0 mi ENE 3.5 mph - N/A   Mostly Cloudy
7:53 AM 78.1 °F - 73.0 °F 84% 30.02 in 8.0 mi ESE 4.6 mph - N/A   Clear
8:53 AM 82.0 °F 87.9 °F 73.9 °F 76% 30.02 in 7.0 mi SE 5.8 mph - N/A   Clear
9:53 AM 84.9 °F 91.4 °F 73.0 °F 67% 30.02 in 8.0 mi South 4.6 mph - N/A   Scattered Clouds
10:53 AM 87.1 °F 94.5 °F 73.0 °F 63% 30.04 in 9.0 mi East 3.5 mph - N/A   Mostly Cloudy
11:53 AM 91.0 °F 99.3 °F 73.0 °F 55% 30.04 in 9.0 mi Calm Calm - N/A   Clear
12:53 PM 91.9 °F 100.7 °F 73.0 °F 54% 30.04 in 9.0 mi East 9.2 mph - N/A   Scattered Clouds
1:53 PM 90.0 °F 96.9 °F 72.0 °F 55% 30.03 in 9.0 mi NNE 5.8 mph - N/A   Overcast
2:29 PM 95.0 °F 103.2 °F 71.6 °F 47% 30.03 in 10.0 mi Variable 4.6 mph - N/A Thunderstorm Scattered Clouds
2:53 PM 96.1 °F 103.5 °F 71.1 °F 44% 30.01 in 10.0 mi NE 5.8 mph - N/A Thunderstorm Clear
3:38 PM 93.2 °F 98.8 °F 69.8 °F 46% 30.03 in 10.0 mi SSW 15.0 mph 18.4 mph N/A   Partly Cloudy
3:53 PM 91.9 °F 95.9 °F 68.0 °F 45% 30.01 in 10.0 mi South 13.8 mph - N/A   Mostly Cloudy
4:33 PM 91.4 °F 98.4 °F 71.6 °F 52% 30.01 in 10.0 mi South 5.8 mph - N/A Thunderstorm Clear
4:53 PM 93.0 °F 100.1 °F 71.1 °F 49% 30.00 in 10.0 mi South 4.6 mph - N/A Thunderstorm Clear
5:00 PM 93.2 °F 98.8 °F 69.8 °F 46% 30.01 in 10.0 mi Calm Calm - N/A   Clear
5:53 PM 93.0 °F 100.1 °F 71.1 °F 49% 29.98 in 10.0 mi East 8.1 mph - N/A   Clear
6:53 PM 93.0 °F 99.0 °F 70.0 °F 47% 29.97 in 10.0 mi ESE 9.2 mph - N/A   Clear
7:53 PM 91.0 °F 97.6 °F 71.1 °F 52% 29.98 in 10.0 mi ESE 9.2 mph - N/A   Clear
8:53 PM 88.0 °F 94.7 °F 72.0 °F 59% 29.98 in 10.0 mi East 6.9 mph - N/A   Clear
9:53 PM 86.0 °F 91.5 °F 71.1 °F 61% 30.00 in 10.0 mi ESE 8.1 mph - N/A   Clear
10:53 PM 84.0 °F 89.6 °F 72.0 °F 67% 30.00 in 10.0 mi East 5.8 mph - N/A   Clear
11:53 PM 82.9 °F 88.0 °F 72.0 °F 69% 29.99 in 10.0 mi SE 6.9 mph - N/A   Clear